This is the latest recevied weather packets stored in our database for station/object MMUN. If no packets are shown the sender has not sent any weather packets the latest 1 day(s).
| Time | Temp. | Humidity | Pressure | Rain* | Wind** | Luminosity | Snow |
|---|---|---|---|---|---|---|---|
| 1778096022 | 31.67° C | 59% | 1013.9 hPa | - | - | - | - |
| 1778095422 | 31.67° C | 59% | 1013.9 hPa | - | - | - | - |
| 1778094823 | 31.67° C | 59% | 1013.9 hPa | - | - | - | - |
| 1778093025 | 30.56° C | 62% | 1014.6 hPa | - | - | - | - |
| 1778092427 | 30.56° C | 62% | 1014.6 hPa | - | - | - | - |
| 1778090022 | 30° C | 66% | 1014.9 hPa | - | - | - | - |
| 1778088226 | 30° C | 66% | 1014.9 hPa | - | - | - | - |
| 1778085824 | 30° C | 70% | 1014.9 hPa | - | - | - | - |
| 1778083548 | 30° C | 70% | 1014.9 hPa | - | - | - | - |
| 1778082830 | 30° C | 70% | 1015.2 hPa | - | - | - | - |
| 1778079223 | 30° C | 74% | 1014.9 hPa | - | - | - | - |
| 1778076222 | 30° C | 74% | 1014.9 hPa | - | - | - | - |
| 1778075021 | 28.89° C | 79% | 1014.6 hPa | - | - | - | - |
| 1778074419 | 28.89° C | 79% | 1014.6 hPa | - | - | - | - |
| 1778073821 | 28.89° C | 79% | 1014.6 hPa | - | - | - | - |
| 1778073224 | 28.89° C | 79% | 1014.6 hPa | - | - | - | - |
| 1778072625 | 28.89° C | 79% | 1014.6 hPa | - | - | - | - |
| 1778070224 | 26.67° C | 88% | 1014.2 hPa | - | - | - | - |
| 1778069022 | 26.67° C | 88% | 1014.2 hPa | - | - | - | - |
| 1778068423 | 26.67° C | 88% | 1013.5 hPa | - | - | - | - |
| 1778067221 | 26.67° C | 88% | 1013.5 hPa | - | - | - | - |
| 1778066626 | 26.67° C | 88% | 1013.5 hPa | - | - | - | - |
| 1778066025 | 26.67° C | 88% | 1013.5 hPa | - | - | - | - |
| 1778065422 | 26.67° C | 88% | 1013.5 hPa | - | - | - | - |
| 1778064822 | 26.67° C | 83% | 1013.2 hPa | - | - | - | - |
* Rain since midnight (hover to see other rain measurements)
** Current wind speed in m/s (hover to see current wind gust speed)